Regional Weather Roundup
Issued by NWS Bismarck, ND

Home | Current Version | Previous Version | Text Only | Print | Product List | Glossary On
Versions: 1 2 3 4 5 6 7 8 9 10 11 12 13 14 15 16 17 18 19 20 21 22 23 24 25 26 27 28 29 30 31 32 33 34 35 36 37 38 39 40 41 42 43 44 45 46 47 48 49 50
000
ASUS43 KBIS 212210
RWRBIS

NWR BROADCAST TEXT
NATIONAL WEATHER SERVICE BISMARCK ND
400 PM CST SAT JAN 21 2017

NOTE: "FAIR" INDICATES FEW OR NO CLOUDS BELOW 12,000 FEET WITH NO
SIGNIFICANT WEATHER AND/OR OBSTRUCTIONS TO VISIBILITY.


CITY           SKY/WX    TMP DP  RH WIND       PRES   REMARKS
WILLISTON      FAIR      32  26  78 W10       29.42R
MINOT          CLOUDY    29  26  89 SW8       29.40R FOG
MINOT AFB      CLOUDY    28  26  91 SW3       29.40R
BISMARCK       CLOUDY    32  29  88 W3        29.43R
DICKINSON      FAIR      33  26  75 W16       29.39R
GARRISON         N/A     25  24  96 SW3       29.41R
HETTINGER ARPT FAIR      32  25  75 W13       29.43R
JAMESTOWN      FOG       33  33 100 W8        29.41R VSB 3/4
CARRINGTON     CLOUDY    34  30  86 CALM      29.44R
HAZEN          CLOUDY   N/A N/A N/A CALM      29.44R
MANDAN         CLOUDY    28  28 100 SW5       29.42R FOG
RUGBY            N/A     32  32 100 S8        29.41R
STANLEY        CLOUDY    28  28 100 W8        29.41R
TIOGA          MOCLDY    28  28 100 NW12      29.42R WCI  18
WATFORD CITY   FAIR      30  25  80 W6        29.42R
$$

CITY           SKY/WX    TMP DP  RH WIND       PRES   REMARKS
GRAND FORKS    CLOUDY    36  32  85 E6        29.45R
GRAND FORKS AF CLOUDY    36  34  93 E3        29.46R
DEVILS LAKE    CLOUDY    34  34 100 SW3       29.44R FOG
FARGO          CLOUDY    39  35  86 NE3       29.44R
CAVALIER       CLOUDY    34  32  93 E7        29.47R FOG
GRAFTON        CLOUDY    34  34 100 E6        29.48R
GWINNER        CLOUDY    34  34 100 CALM      29.42R VSB 1/2
ROLLA            N/A    N/A N/A N/A MISG        N/A
$$

CITY           SKY/WX    TMP DP  RH WIND       PRES   REMARKS
ABERDEEN       CLOUDY    33  26  75 SW3       29.43R
MOBRIDGE       CLOUDY    29  25  85 MISG      29.41R FOG
BUFFALO          N/A     35  29  78 NW9       29.38R
RAPID CITY     FAIR      41  29  62 N8        29.45R
GLASGOW        FAIR      28  22  78 SW3       29.44R
SIDNEY         FAIR      34  25  69 CALM      29.44R
WOLF POINT     FAIR      27  20  75 W9        29.46R WCI  18
GLENDIVE       FAIR      25  21  85 S8        29.47R WCI  16
MILES CITY     FAIR      24  20  84 S6        29.48R WCI  17
BAKER          FAIR      28  24  85 W13       29.45R WCI  17
$$

CITY           SKY/WX    TMP DP  RH WIND       PRES   REMARKS
BILLINGS       FAIR      33  21  61 SW12      29.46R
GREAT FALLS    FAIR      35  22  58 W8        29.48R
REGINA         CLOUDY    25  25 100 NW12      29.41R FOG     WCI  14
ESTEVAN        FOG       23  21  93 W3        29.40R VSB 1/4
$$




USA.gov is the U.S. government's official web portal to all federal, state and local government web resources and services.